| time (UTC) | temp F | wind direction | speed MPH | gust MPH | rain 1hr in | rain 24hr in | rain mn in | humidity % | barometer mb |
| 20260504012236 | 0 | 1.0 | 3.0 | 0.00 | 0.00 | 0.00 | 1009.8 | ||
| 20260504011205 | 0 | 0.0 | 1.0 | 0.00 | 0.00 | 0.00 | 1009.8 | ||
| 20260504010136 | 0 | 0.0 | 1.0 | 0.00 | 0.00 | 0.00 | 1009.8 | ||
| 20260504005107 | 0 | 0.0 | 1.0 | 0.00 | 0.00 | 0.00 | 1009.8 | ||
| 20260504003625 | 0 | 0.0 | 0.0 | 0.00 | 0.00 | 0.00 | 1010.1 | ||
| 20260504002556 | 0 | 0.0 | 4.0 | 0.00 | 0.00 | 0.00 | 1010.1 | ||
| 20260504001528 | 0 | 0.0 | 1.0 | 0.00 | 0.00 | 0.00 | 1010.2 | ||
| 20260504000356 | 0 | 0.0 | 2.0 | 0.00 | 0.00 | 0.00 | 1010.2 | ||
| 20260503235326 | 0 | 0.0 | 1.0 | 0.00 | 0.00 | 0.00 | 1010.4 | ||
| 20260503234256 | 0 | 0.0 | 4.0 | 0.00 | 0.00 | 0.00 | 1010.4 | ||
| 20260503233227 | 0 | 0.0 | 3.0 | 0.00 | 0.00 | 0.00 | 1010.6 | ||
| 20260503232158 | 0 | 0.0 | 4.0 | 0.00 | 0.00 | 0.00 | 1010.4 | ||
| 20260503231125 | 0 | 0.0 | 0.0 | 0.00 | 0.00 | 0.00 | 1010.5 | ||
| 20260503230056 | 0 | 0.0 | 1.0 | 0.00 | 0.00 | 0.00 | 1010.6 | ||
| 20260503225027 | 0 | 0.0 | 1.0 | 0.00 | 0.00 | 0.00 | 1010.7 | ||
| 20260503223957 | 0 | 0.0 | 1.0 | 0.00 | 0.00 | 0.00 | 1010.6 | ||
| 20260503222825 | 0 | 0.0 | 1.0 | 0.00 | 0.00 | 0.00 | 1010.4 | ||
| 20260503221756 | 0 | 1.0 | 2.0 | 0.00 | 0.00 | 0.00 | 1010.4 | ||
| 20260503220727 | 0 | 0.0 | 1.0 | 0.00 | 0.00 | 0.00 | 1010.4 | ||
| 20260503215451 | 0 | 0.0 | 1.0 | 0.00 | 0.00 | 0.00 | 1010.5 | ||
| 20260503214420 | 0 | 0.0 | 0.0 | 0.00 | 0.00 | 0.00 | 1010.5 | ||
| 20260503213248 | 0 | 0.0 | 1.0 | 0.00 | 0.00 | 0.00 | 1010.6 | ||
| 20260503212218 | 0 | 0.0 | 1.0 | 0.00 | 0.00 | 0.00 | 1010.7 | ||
| 20260503211045 | 0 | 0.0 | 1.0 | 0.00 | 0.00 | 0.00 | 1010.6 | ||
| 20260503210016 | 0 | 0.0 | 0.0 | 0.00 | 0.00 | 0.00 | 1010.6 | ||
| 20260503204805 | 0 | 0.0 | 1.0 | 0.00 | 0.00 | 0.00 | 1010.8 | ||
| 20260503203736 | 0 | 0.0 | 1.0 | 0.00 | 0.00 | 0.00 | 1010.8 | ||
| 20260503202706 | 0 | 0.0 | 4.0 | 0.00 | 0.00 | 0.00 | 1010.6 | ||
| 20260503201636 | 0 | 0.0 | 3.0 | 0.00 | 0.00 | 0.00 | 1010.9 | ||
| 20260503200606 | 0 | 1.0 | 3.0 | 0.00 | 0.00 | 0.00 | 1010.6 | ||
| 20260503195536 | 0 | 0.0 | 1.0 | 0.00 | 0.00 | 0.00 | 1010.7 | ||
| 20260503194506 | 0 | 0.0 | 2.0 | 0.00 | 0.00 | 0.00 | 1010.5 | ||
| 20260503193437 | 0 | 1.0 | 1.0 | 0.00 | 0.00 | 0.00 | 1010.4 | ||
| 20260503192404 | 0 | 1.0 | 4.0 | 0.00 | 0.00 | 0.00 | 1010.3 | ||
| 20260503191335 | 0 | 1.0 | 4.0 | 0.00 | 0.00 | 0.00 | 1010.2 | ||
| 20260503190306 | 0 | 2.0 | 6.0 | 0.00 | 0.00 | 0.00 | 1010.0 | ||
| 20260503185237 | 0 | 3.0 | 5.0 | 0.00 | 0.00 | 0.00 | 1009.9 | ||
| 20260503184207 | 0 | 4.0 | 8.0 | 0.00 | 0.00 | 0.00 | 1010.0 | ||
| 20260503183128 | 0 | 4.0 | 7.0 | 0.00 | 0.00 | 0.00 | 1009.9 | ||
| 20260503182059 | 0 | 1.0 | 4.0 | 0.00 | 0.00 | 0.00 | 1010.0 | ||
| 20260503181029 | 0 | 0.0 | 5.0 | 0.00 | 0.00 | 0.00 | 1010.1 | ||
| 20260503175959 | 0 | 2.0 | 3.0 | 0.00 | 0.00 | 0.00 | 1010.1 | ||
| 20260503174930 | 0 | 1.0 | 3.0 | 0.00 | 0.00 | 0.00 | 1010.1 | ||
| 20260503173900 | 0 | 2.0 | 6.0 | 0.00 | 0.00 | 0.00 | 1010.1 | ||
| 20260503172830 | 0 | 1.0 | 4.0 | 0.00 | 0.00 | 0.00 | 1010.2 | ||
| 20260503171800 | 0 | 0.0 | 5.0 | 0.00 | 0.00 | 0.00 | 1010.3 | ||
| 20260503170726 | 0 | 1.0 | 7.0 | 0.00 | 0.00 | 0.00 | 1010.3 | ||
| 20260503150129 | 0 | 5.0 | 11.0 | 0.00 | 0.00 | 0.00 | 1010.8 | ||
| 20260503130555 | 0 | 5.0 | 9.0 | 0.00 | 0.00 | 0.00 | 1011.8 | ||
| 20260503090416 | 0 | 2.0 | 4.0 | 0.00 | 0.00 | 0.00 | 1012.9 | ||
| 20260503081143 | 0 | 4.0 | 6.0 | 0.00 | 0.00 | 0.00 | 1012.9 | ||
| 20260503080111 | 0 | 2.0 | 3.0 | 0.00 | 0.00 | 0.00 | 1012.9 | ||
| 20260503072942 | 0 | 4.0 | 6.0 | 0.00 | 0.00 | 0.00 | 1012.4 | ||
| 20260503071912 | 0 | 0.0 | 1.0 | 0.00 | 0.00 | 0.00 | 1012.6 | ||
| 20260503070842 | 0 | 0.0 | 1.0 | 0.00 | 0.00 | 0.00 | 1012.6 | ||
| 20260503054435 | 0 | 0.0 | 0.0 | 0.00 | 0.00 | 0.00 | 1012.5 | ||
| 20260503053403 | 0 | 0.0 | 0.0 | 0.00 | 0.00 | 0.00 | 1012.5 | ||
| 20260503052334 | 0 | 0.0 | 1.0 | 0.00 | 0.00 | 0.00 | 1012.4 | ||
| 20260503051304 | 0 | 0.0 | 1.0 | 0.00 | 0.00 | 0.00 | 1012.4 | ||
| 20260503050235 | 0 | 0.0 | 1.0 | 0.00 | 0.00 | 0.00 | 1012.4 | ||
| 20260503045205 | 0 | 0.0 | 1.0 | 0.00 | 0.00 | 0.00 | 1012.4 | ||
| 20260503044131 | 0 | 0.0 | 1.0 | 0.00 | 0.00 | 0.00 | 1012.4 | ||
| 20260503043102 | 0 | 0.0 | 0.0 | 0.00 | 0.00 | 0.00 | 1012.4 | ||
| 20260503041723 | 0 | 0.0 | 0.0 | 0.00 | 0.00 | 0.00 | 1012.3 | ||
| 20260503040654 | 0 | 0.0 | 1.0 | 0.00 | 0.00 | 0.00 | 1012.3 | ||
| 20260503035626 | 0 | 0.0 | 0.0 | 0.00 | 0.00 | 0.00 | 1012.4 | ||
| 20260503034557 | 0 | 0.0 | 0.0 | 0.00 | 0.00 | 0.00 | 1012.4 | ||
| 20260503033528 | 0 | 0.0 | 0.0 | 0.00 | 0.00 | 0.00 | 1012.4 | ||
| 20260503032458 | 0 | 0.0 | 1.0 | 0.00 | 0.00 | 0.00 | 1012.3 | ||
| 20260503031426 | 0 | 0.0 | 0.0 | 0.00 | 0.00 | 0.00 | 1012.4 | ||
| 20260503030357 | 0 | 0.0 | 0.0 | 0.00 | 0.00 | 0.00 | 1012.5 | ||
| 20260503025325 | 0 | 0.0 | 1.0 | 0.00 | 0.00 | 0.00 | 1012.4 | ||
| 20260503024257 | 0 | 0.0 | 0.0 | 0.00 | 0.00 | 0.00 | 1012.5 | ||
| 20260503023217 | 0 | 0.0 | 1.0 | 0.00 | 0.00 | 0.00 | 1012.6 | ||
| 20260503022147 | 0 | 0.0 | 0.0 | 0.00 | 0.00 | 0.00 | 1012.6 | ||
| 20260503021117 | 0 | 0.0 | 1.0 | 0.00 | 0.00 | 0.00 | 1012.5 | ||
| 20260503015943 | 0 | 0.0 | 0.0 | 0.00 | 0.00 | 0.00 | 1012.6 | ||
| 20260503014915 | 0 | 0.0 | 1.0 | 0.00 | 0.00 | 0.00 | 1012.7 | ||
| 20260503013742 | 0 | 0.0 | 0.0 | 0.00 | 0.00 | 0.00 | 1012.7 | ||
| 20260503012712 | 0 | 0.0 | 1.0 | 0.00 | 0.00 | 0.00 | 1012.7 |